JCSAT-15 (41903 NORAD) Tracking and Keplerian Element Data

This shows tracking and keplerian element data for the satellite.

Feedback or suggestion? Click here.




ElementValue
Catalog41903
NameJCSAT-15
Epoch Orbit859
Epoch Day113.98943646
Epoch Year2019
RAAN250.1502
Inclination0.0131
Eccentricity0.0001338
Argument of Perigee156.9646
Mean Anonmoly270.8748
Mean Motion1.00270841
Decay Rate-3.66E-06
L11 41903U 16082A 19113.98943646 -.00000366 00000-0 00000+0 0 9993
L22 41903 0.0131 250.1502 0001338 156.9646 270.8748 1.00270841 8592

Live tracking and technical data element details for JCSAT-15 (NORAD 41903). JCSAT-15 can be tracked NOW for your location showing map with azimuth and elevation plus other details from your city location.

Track the satellite on the map from your city or location and see movement details for azimuth, elevation, latitude, longitude, range, height, and movement on the map or in text.







IsCatalogInMostPopularTable: catalog: 41903, numindb: 184
Update: records affected: 1



GetName: 41903 JCSAT-15

Hit Count: updated at: Wed, 24 Apr 2019 18:00:34 GMT